Regional Weather Roundup
Issued by NWS

Home | Current Version | Previous Version | Graphics & Text | Print | Product List | Glossary On
Versions: 1 2 3 4 5 6 7 8 9 10 11 12 13 14 15 16 17 18 19 20 21 22 23 24 25
000
ASUS45 KCYS 220610
RWRWY

WYOMING REGIONAL WEATHER ROUNDUP
NATIONAL WEATHER SERVICE CHEYENNE WY
1200 AM MDT WED MAR 22 2017

NOTE:  "FAIR" INDICATES FEW OR NO CLOUDS BELOW 12,000 FEET
WITH NO SIGNIFICANT WEATHER AND/OR OBSTRUCTIONS TO VISIBILITY.

WYZ001-220700-
YELLOWSTONE NATIONAL PARK

CITY           SKY/WX    TMP DP  RH WIND       PRES   REMARKS
LK YELLOWSTONE   N/A     31  29  92 VRB5      29.98S WCI  26
6HR MIN TEMP:  28; 6HR MAX TEMP:  47;

W YELLOWSTONE  NOT AVBL

$$
WYZ002>013-054>058-071-098>099-220700-
NORTHERN WYOMING

CITY           SKY/WX    TMP DP  RH WIND       PRES   REMARKS
JACKSON        CLOUDY    41  36  81 CALM      29.96S
CODY           FAIR      36  34  92 CALM      29.91F
GREYBULL       FAIR      40  37  89 CALM      29.89F
6HR MIN TEMP:  39; 6HR MAX TEMP:  51;

WORLAND        FAIR      37  37 100 SE6       29.90F WCI  32
6HR MIN TEMP:  35; 6HR MAX TEMP:  52;

SHERIDAN       FAIR      37  34  89 S5        29.90F WCI  33
6HR MIN TEMP:  37; 6HR MAX TEMP:  47;

BUFFALO        FAIR      47  36  65 S31       29.89F
6HR MIN TEMP:  37; 6HR MAX TEMP:  47;

GILLETTE       MOCLDY    35  33  92 S25G37    29.97F WCI  23
6HR MIN TEMP:  35; 6HR MAX TEMP:  41;

HULETT         FAIR      30  28  93 CALM      30.01F
NEWCASTLE      FAIR      37  30  75 SE26G36   30.06F WCI  26

$$
WYZ014>020-022>026-101>103-220700-
CENTRAL WYOMING

CITY           SKY/WX    TMP DP  RH WIND       PRES   REMARKS
BIG PINEY      MOCLDY    34  31  88 N3        30.00F
6HR MIN TEMP:  31; 6HR MAX TEMP:  47;

PINEDALE       CLOUDY    36  32  87 E3        30.01F
DUBOIS         MOCLDY    34  32  93 NW10      29.98S WCI  26
LANDER         FAIR      40  35  83 NW7       29.93F
6HR MIN TEMP:  39; 6HR MAX TEMP:  53;

RIVERTON       FAIR      40  36  86 NW9       29.93F WCI  34
6HR MIN TEMP:  39; 6HR MAX TEMP:  54;

CASPER         CLOUDY    42  39  89 CALM      29.97F
6HR MIN TEMP:  42; 6HR MAX TEMP:  53; 6HR PCP: TRACE;

DOUGLAS        FAIR      44  33  65 SE24G35   30.02F
6HR MIN TEMP:  44; 6HR MAX TEMP:  52; 6HR PCP:  0.01;


$$
WYZ021-027>030-104>119-220700-
SOUTHERN WYOMING

CITY           SKY/WX    TMP DP  RH WIND       PRES   REMARKS
EVANSTON       FAIR      49  27  42 SW21      29.98F
6HR MIN TEMP:  47; 6HR MAX TEMP:  55; 6HR PCP: TRACE;

KEMMERER         N/A     45  30  57 CALM      30.01F
FORT BRIDGER   FAIR      47  31  52 S12       30.03F
ROCK SPRINGS   FAIR      48  29  47 S9        30.00F
6HR MIN TEMP:  47; 6HR MAX TEMP:  58; 6HR PCP: TRACE;

DIXON            N/A     48  29  47 CALM      30.07S
RAWLINS        MOCLDY    42  26  53 CALM      30.03F
6HR MIN TEMP:  42; 6HR MAX TEMP:  61;

SARATOGA       FAIR      46  27  46 S15       30.05F
LARAMIE        FAIR      38  33  82 SE23      30.07F WCI  27
6HR MIN TEMP:  38; 6HR MAX TEMP:  49;

CHEYENNE       FAIR      39  29  67 S14       30.13S WCI  31
6HR MIN TEMP:  38; 6HR MAX TEMP:  54;

TORRINGTON     FAIR      39  28  64 SE17      30.12F WCI  30
6HR MIN TEMP:  39; 6HR MAX TEMP:  56; 6HR PCP: TRACE;

PINE BLUFFS    FAIR      39  27  60 S25G36    30.11F WCI  28

$$




USA.gov is the U.S. government's official web portal to all federal, state and local government web resources and services.